Time,TemperatureF,DewpointF,PressureIn,WindDirection,WindDirectionDegrees,WindSpeedMPH,WindSpeedGustMPH,Humidity,HourlyPrecipIn,Conditions,Clouds,dailyrainin,SoftwareType,DateUTC
2013-08-27 00:12:00,66.6,66.0,29.88,West,270,0.0,-999.0,98,-99.99,,,0.00,Acu-Link.com,2013-08-27 04:12:00,
2013-08-27 00:27:00,66.4,65.8,29.88,ESE,112,0.0,-999.0,98,-99.99,,,0.00,Acu-Link.com,2013-08-27 04:27:00,
2013-08-27 00:42:00,66.0,65.4,29.88,SSW,202,1.1,-999.0,98,-99.99,,,0.00,Acu-Link.com,2013-08-27 04:42:00,
2013-08-27 00:57:00,65.8,65.2,29.87,ENE,67,0.0,-999.0,98,-99.99,,,0.00,Acu-Link.com,2013-08-27 04:57:00,
2013-08-27 01:13:00,65.7,65.1,29.87,SW,225,0.0,-999.0,98,-99.99,,,0.00,Acu-Link.com,2013-08-27 05:13:00,
2013-08-27 01:28:00,65.7,65.1,29.86,SE,135,0.0,-999.0,98,-99.99,,,0.00,Acu-Link.com,2013-08-27 05:28:00,
2013-08-27 01:43:00,65.5,64.9,29.86,NNE,22,0.0,-999.0,98,-99.99,,,0.00,Acu-Link.com,2013-08-27 05:43:00,
2013-08-27 01:58:00,65.1,64.5,29.86,NW,315,0.0,-999.0,98,-99.99,,,0.00,Acu-Link.com,2013-08-27 05:58:00,
2013-08-27 02:14:00,64.9,64.3,29.86,West,270,0.0,-999.0,98,-99.99,,,0.00,Acu-Link.com,2013-08-27 06:14:00,
2013-08-27 02:29:00,64.8,64.2,29.85,ESE,112,0.0,-999.0,98,-99.99,,,0.00,Acu-Link.com,2013-08-27 06:29:00,
2013-08-27 02:44:00,64.6,64.0,29.85,SSW,202,0.0,-999.0,98,-99.99,,,0.00,Acu-Link.com,2013-08-27 06:44:00,
2013-08-27 02:59:00,64.4,63.8,29.85,NNE,22,0.0,-999.0,98,-99.99,,,0.00,Acu-Link.com,2013-08-27 06:59:00,
2013-08-27 03:15:00,64.4,63.8,29.85,WSW,247,0.0,-999.0,98,-99.99,,,0.00,Acu-Link.com,2013-08-27 07:15:00,
2013-08-27 03:30:00,64.4,63.8,29.86,SSE,157,0.0,-999.0,98,-99.99,,,0.00,Acu-Link.com,2013-08-27 07:30:00,
2013-08-27 03:45:00,64.0,63.4,29.86,NNE,22,0.0,-999.0,98,-99.99,,,0.00,Acu-Link.com,2013-08-27 07:45:00,
2013-08-27 04:00:00,63.7,63.1,29.86,SE,135,0.0,-999.0,98,-99.99,,,0.00,Acu-Link.com,2013-08-27 08:00:00,
2013-08-27 04:17:00,63.5,62.9,29.86,East,90,0.0,-999.0,98,-99.99,,,0.00,Acu-Link.com,2013-08-27 08:17:00,
2013-08-27 04:33:00,63.5,62.9,29.86,East,90,0.0,-999.0,98,-99.99,,,0.00,Acu-Link.com,2013-08-27 08:33:00,
2013-08-27 04:48:00,63.5,62.9,29.86,WSW,247,0.0,-999.0,98,-99.99,,,0.00,Acu-Link.com,2013-08-27 08:48:00,
2013-08-27 05:03:00,63.5,62.9,29.86,WNW,292,0.0,-999.0,98,-99.99,,,0.00,Acu-Link.com,2013-08-27 09:03:00,
2013-08-27 05:18:00,63.3,62.7,29.87,NNE,22,0.0,-999.0,98,-99.99,,,0.00,Acu-Link.com,2013-08-27 09:18:00,
2013-08-27 05:33:00,63.3,62.7,29.86,NE,45,0.0,-999.0,98,-99.99,,,0.00,Acu-Link.com,2013-08-27 09:33:00,
2013-08-27 05:48:00,63.1,62.5,29.86,South,180,0.0,-999.0,98,-99.99,,,0.00,Acu-Link.com,2013-08-27 09:48:00,
2013-08-27 06:03:00,62.6,62.0,29.88,East,90,0.0,-999.0,98,-99.99,,,0.00,Acu-Link.com,2013-08-27 10:03:00,
2013-08-27 06:19:00,62.6,62.0,29.88,East,90,0.0,-999.0,98,-99.99,,,0.00,Acu-Link.com,2013-08-27 10:19:00,
2013-08-27 06:34:00,62.8,62.2,29.88,South,180,0.0,-999.0,98,-99.99,,,0.00,Acu-Link.com,2013-08-27 10:34:00,
2013-08-27 06:49:00,62.6,62.0,29.89,NNE,22,0.0,-999.0,98,-99.99,,,0.00,Acu-Link.com,2013-08-27 10:49:00,
2013-08-27 07:04:00,63.0,62.4,29.89,ENE,67,0.0,-999.0,98,-99.99,,,0.00,Acu-Link.com,2013-08-27 11:04:00,
2013-08-27 07:20:00,63.3,62.7,29.89,NNW,337,1.7,-999.0,98,-99.99,,,0.00,Acu-Link.com,2013-08-27 11:20:00,
2013-08-27 07:35:00,63.5,62.9,29.89,South,180,0.0,-999.0,98,-99.99,,,0.00,Acu-Link.com,2013-08-27 11:35:00,
2013-08-27 07:50:00,63.9,63.3,29.89,NNW,337,1.7,-999.0,98,-99.99,,,0.00,Acu-Link.com,2013-08-27 11:50:00,
2013-08-27 08:06:00,64.4,63.8,29.90,SSE,157,0.0,-999.0,98,-99.99,,,0.00,Acu-Link.com,2013-08-27 12:06:00,
2013-08-27 08:21:00,65.7,65.1,29.90,NNW,337,0.0,-999.0,98,-99.99,,,0.00,Acu-Link.com,2013-08-27 12:21:00,
2013-08-27 08:36:00,66.6,66.0,29.89,NNE,22,2.2,-999.0,98,-99.99,,,0.00,Acu-Link.com,2013-08-27 12:36:00,
2013-08-27 08:52:00,67.6,67.0,29.89,NNE,22,0.0,-999.0,98,-99.99,,,0.00,Acu-Link.com,2013-08-27 12:52:00,
2013-08-27 09:07:00,70.2,69.6,29.89,West,270,1.1,-999.0,98,-99.99,,,0.00,Acu-Link.com,2013-08-27 13:07:00,
2013-08-27 09:22:00,71.1,70.2,29.89,WSW,247,1.1,-999.0,97,-99.99,,,0.00,Acu-Link.com,2013-08-27 13:22:00,
2013-08-27 09:37:00,72.3,69.8,29.89,NNE,22,2.2,-999.0,92,-99.99,,,0.00,Acu-Link.com,2013-08-27 13:37:00,
2013-08-27 09:53:00,73.0,70.5,29.89,WSW,247,1.7,-999.0,92,-99.99,,,0.00,Acu-Link.com,2013-08-27 13:53:00,
2013-08-27 10:08:00,73.6,70.5,29.89,SW,225,2.2,-999.0,90,-99.99,,,0.00,Acu-Link.com,2013-08-27 14:08:00,
2013-08-27 10:23:00,74.7,70.6,29.90,West,270,0.0,-999.0,87,-99.99,,,0.00,Acu-Link.com,2013-08-27 14:23:00,
2013-08-27 10:39:00,75.6,69.7,29.90,West,270,1.1,-999.0,82,-99.99,,,0.00,Acu-Link.com,2013-08-27 14:39:00,
2013-08-27 10:54:00,75.9,70.0,29.90,South,180,0.0,-999.0,82,-99.99,,,0.00,Acu-Link.com,2013-08-27 14:54:00,
2013-08-27 11:09:00,75.6,70.8,29.90,South,180,0.0,-999.0,85,-99.99,,,0.00,Acu-Link.com,2013-08-27 15:09:00,
2013-08-27 11:25:00,76.8,70.1,29.89,East,90,0.0,-999.0,80,-99.99,,,0.00,Acu-Link.com,2013-08-27 15:25:00,
2013-08-27 11:40:00,75.9,70.4,29.90,SW,225,0.0,-999.0,83,-99.99,,,0.00,Acu-Link.com,2013-08-27 15:40:00,
2013-08-27 11:55:00,75.7,70.9,29.89,ESE,112,0.0,-999.0,85,-99.99,,,0.00,Acu-Link.com,2013-08-27 15:55:00,
2013-08-27 12:10:00,76.8,71.6,29.89,ESE,112,0.0,-999.0,84,-99.99,,,0.00,Acu-Link.com,2013-08-27 16:10:00,
2013-08-27 12:26:00,77.4,71.1,29.89,SSW,202,0.0,-999.0,81,-99.99,,,0.00,Acu-Link.com,2013-08-27 16:26:00,
2013-08-27 12:41:00,79.0,71.5,29.88,ESE,112,0.0,-999.0,78,-99.99,,,0.00,Acu-Link.com,2013-08-27 16:41:00,
2013-08-27 12:56:00,79.7,70.3,29.88,NNW,337,0.0,-999.0,73,-99.99,,,0.00,Acu-Link.com,2013-08-27 16:56:00,
2013-08-27 13:12:00,77.9,68.9,29.89,SSE,157,0.0,-999.0,74,-99.99,,,0.00,Acu-Link.com,2013-08-27 17:12:00,
2013-08-27 13:27:00,78.6,68.4,29.89,NNW,337,0.0,-999.0,71,-99.99,,,0.00,Acu-Link.com,2013-08-27 17:27:00,
2013-08-27 13:42:00,78.1,69.9,29.88,WNW,292,2.2,-999.0,76,-99.99,,,0.00,Acu-Link.com,2013-08-27 17:42:00,
2013-08-27 13:57:00,79.0,71.2,29.88,ESE,112,1.1,-999.0,77,-99.99,,,0.00,Acu-Link.com,2013-08-27 17:57:00,
2013-08-27 14:13:00,79.5,68.8,29.87,NNE,22,2.2,-999.0,70,-99.99,,,0.00,Acu-Link.com,2013-08-27 18:13:00,
2013-08-27 14:28:00,82.6,70.5,29.87,ENE,67,0.0,-999.0,67,-99.99,,,0.00,Acu-Link.com,2013-08-27 18:28:00,
2013-08-27 14:43:00,81.0,69.8,29.86,ENE,67,0.0,-999.0,69,-99.99,,,0.00,Acu-Link.com,2013-08-27 18:43:00,
2013-08-27 14:58:00,79.5,70.5,29.85,NNW,337,0.0,-999.0,74,-99.99,,,0.00,Acu-Link.com,2013-08-27 18:58:00,
2013-08-27 15:13:00,78.8,69.8,29.85,West,270,0.0,-999.0,74,-99.99,,,0.00,Acu-Link.com,2013-08-27 19:13:00,
2013-08-27 15:29:00,81.1,70.4,29.85,West,270,0.0,-999.0,70,-99.99,,,0.00,Acu-Link.com,2013-08-27 19:29:00,
2013-08-27 15:44:00,81.0,69.8,29.84,South,180,0.0,-999.0,69,-99.99,,,0.00,Acu-Link.com,2013-08-27 19:44:00,
2013-08-27 15:59:00,80.8,68.8,29.84,SSW,202,0.0,-999.0,67,-99.99,,,0.00,Acu-Link.com,2013-08-27 19:59:00,
2013-08-27 16:14:00,79.3,69.5,29.84,SSE,157,0.0,-999.0,72,-99.99,,,0.00,Acu-Link.com,2013-08-27 20:14:00,
2013-08-27 16:30:00,78.1,69.5,29.84,SSE,157,0.0,-999.0,75,-99.99,,,0.00,Acu-Link.com,2013-08-27 20:30:00,
2013-08-27 16:45:00,78.4,69.0,29.84,SSE,157,0.0,-999.0,73,-99.99,,,0.00,Acu-Link.com,2013-08-27 20:45:00,
2013-08-27 17:00:00,78.4,70.2,29.84,SSW,202,0.0,-999.0,76,-99.99,,,0.00,Acu-Link.com,2013-08-27 21:00:00,
2013-08-27 17:15:00,77.9,70.1,29.84,South,180,0.0,-999.0,77,-99.99,,,0.00,Acu-Link.com,2013-08-27 21:15:00,
2013-08-27 18:01:00,75.9,69.3,29.84,SW,225,0.0,-999.0,80,-99.99,,,0.00,Acu-Link.com,2013-08-27 22:01:00,
2013-08-27 18:16:00,75.4,69.5,29.85,SSW,202,1.7,-999.0,82,-99.99,,,0.00,Acu-Link.com,2013-08-27 22:16:00,
2013-08-27 18:32:00,74.8,68.9,29.84,South,180,1.7,-999.0,82,-99.99,,,0.00,Acu-Link.com,2013-08-27 22:32:00,
2013-08-27 18:47:00,74.1,68.6,29.84,South,180,1.7,-999.0,83,-99.99,,,0.00,Acu-Link.com,2013-08-27 22:47:00,
2013-08-27 19:02:00,73.6,68.5,29.85,SSW,202,1.7,-999.0,84,-99.99,,,0.00,Acu-Link.com,2013-08-27 23:02:00,
2013-08-27 19:18:00,72.9,68.1,29.85,South,180,1.1,-999.0,85,-99.99,,,0.00,Acu-Link.com,2013-08-27 23:18:00,
2013-08-27 19:33:00,72.3,67.9,29.85,West,270,0.0,-999.0,86,-99.99,,,0.00,Acu-Link.com,2013-08-27 23:33:00,
2013-08-27 19:49:00,71.4,67.7,29.86,South,180,0.0,-999.0,88,-99.99,,,0.00,Acu-Link.com,2013-08-27 23:49:00,
2013-08-27 20:04:00,70.9,68.1,29.86,South,180,0.0,-999.0,91,-99.99,,,0.00,Acu-Link.com,2013-08-28 00:04:00,
2013-08-27 20:19:00,70.2,67.8,29.87,NNE,22,0.0,-999.0,92,-99.99,,,0.00,Acu-Link.com,2013-08-28 00:19:00,
2013-08-27 20:34:00,69.4,67.6,29.88,NE,45,0.0,-999.0,94,-99.99,,,0.00,Acu-Link.com,2013-08-28 00:34:00,
2013-08-27 20:50:00,68.9,67.1,29.88,NNW,337,0.0,-999.0,94,-99.99,,,0.00,Acu-Link.com,2013-08-28 00:50:00,
2013-08-27 21:05:00,68.5,67.6,29.88,South,180,0.0,-999.0,97,-99.99,,,0.00,Acu-Link.com,2013-08-28 01:05:00,
2013-08-27 21:20:00,68.2,67.3,29.88,South,180,0.0,-999.0,97,-99.99,,,0.00,Acu-Link.com,2013-08-28 01:20:00,
2013-08-27 21:36:00,67.6,67.0,29.88,NE,45,0.0,-999.0,98,-99.99,,,0.00,Acu-Link.com,2013-08-28 01:36:00,
2013-08-27 22:06:00,67.1,66.5,29.89,ENE,67,0.0,-999.0,98,-99.99,,,0.00,Acu-Link.com,2013-08-28 02:06:00,
2013-08-27 22:22:00,66.9,66.3,29.89,South,180,0.0,-999.0,98,-99.99,,,0.00,Acu-Link.com,2013-08-28 02:22:00,
2013-08-27 22:37:00,66.6,66.0,29.89,South,180,0.0,-999.0,98,-99.99,,,0.00,Acu-Link.com,2013-08-28 02:37:00,
2013-08-27 23:08:00,66.0,65.4,29.90,NNW,337,0.0,-999.0,98,-99.99,,,0.00,Acu-Link.com,2013-08-28 03:08:00,
2013-08-27 23:23:00,65.8,65.2,29.89,NNE,22,0.0,-999.0,98,-99.99,,,0.00,Acu-Link.com,2013-08-28 03:23:00,
2013-08-27 23:38:00,65.5,64.9,29.90,East,90,0.0,-999.0,98,-99.99,,,0.00,Acu-Link.com,2013-08-28 03:38:00,
2013-08-27 23:54:00,65.3,64.7,29.90,NW,315,0.0,-999.0,98,-99.99,,,0.00,Acu-Link.com,2013-08-28 03:54:00,